DW2973 Weather Reports


Display with metric or nautical units.
time (UTC)temp
F
wind
direction
speed
MPH
gust
MPH
rain 1hr
in
rain 24hr
in
rain mn
in
humidity
%
barometer
mb
20260831221515 60 221 1.0 0.0 0.00 0.00 0.00 92 1006.7
20260831220010 60 232 0.0 0.0 0.00 0.00 0.00 92 1006.7
20260831214509 60 232 0.0 0.0 0.00 0.00 0.05 92 1006.6
20260831213008 60 232 0.0 0.0 0.00 0.00 0.05 92 1006.5
20260831211510 59 234 0.0 0.0 0.00 0.00 0.05 92 1006.5
20260831210013 59 234 0.0 0.0 0.00 0.00 0.05 92 1006.4
20260831204509 59 234 0.0 0.0 0.00 0.00 0.05 92 1006.4
20260831203010 59 233 0.0 0.0 0.00 0.00 0.05 92 1006.3
20260831201506 59 233 0.0 0.0 0.00 0.00 0.05 91 1006.3
20260831200016 59 233 0.0 0.0 0.00 0.00 0.05 91 1006.3
20260831194507 59 234 0.0 0.0 0.00 0.00 0.05 91 1006.3
20260831193009 59 234 0.0 0.0 0.00 0.00 0.05 91 1006.4
20260831191506 59 234 0.0 0.0 0.00 0.00 0.05 90 1006.3
20260831190004 59 234 0.0 0.0 0.00 0.00 0.04 90 1006.0
20260831184505 60 233 0.0 0.0 0.00 0.00 0.04 89 1005.6
20260831183003 60 233 0.0 0.0 0.00 0.00 0.04 89 1005.6
20260831181504 61 233 0.0 0.0 0.00 0.00 0.04 88 1005.6
20260831180002 61 234 0.0 0.0 0.00 0.00 0.04 88 1005.6
20260831174502 62 234 0.0 0.0 0.00 0.00 0.04 88 1005.5
20260831173002 62 240 0.0 0.0 0.00 0.00 0.04 88 1005.4
20260831171502 62 240 0.0 0.0 0.00 0.00 0.04 88 1005.3
20260831170001 63 240 0.0 0.0 0.00 0.00 0.04 88 1005.4
20260831164501 63 240 0.0 0.0 0.00 0.00 0.04 88 1005.4
20260831163100 63 240 0.0 0.0 0.00 0.00 0.04 88 1005.5
20260831161559 63 240 0.0 0.0 0.00 0.00 0.04 88 1005.5
20260831160059 63 240 0.0 0.0 0.00 0.00 0.04 88 1005.4
20260831154559 63 240 0.0 0.0 0.00 0.00 0.04 86 1005.1
20260831153115 64 243 0.0 0.0 0.00 0.00 0.04 86 1005.1
20260831151602 64 230 0.0 0.0 0.00 0.00 0.03 84 1005.5
20260831150057 65 225 1.0 0.0 0.00 0.00 0.03 82 1005.4
20260831144640 67 223 1.0 0.0 0.00 0.00 0.03 80 1005.5
20260831143100 68 224 1.0 0.0 0.00 0.00 0.03 79 1005.5
20260831141555 69 211 2.0 0.0 0.00 0.00 0.03 80 1005.5
20260831140055 69 233 2.0 0.0 0.00 0.00 0.03 81 1005.4
20260831134555 68 223 1.0 0.0 0.00 0.00 0.03 82 1005.3
20260831133100 68 233 2.0 0.0 0.00 0.00 0.03 81 1005.2
20260831131601 68 234 2.0 0.0 0.00 0.00 0.03 82 1005.2
20260831130053 68 232 3.0 0.0 0.00 0.00 0.03 82 1005.2
20260831124558 69 202 4.0 0.0 0.00 0.00 0.03 86 1005.2
20260831123054 69 250 1.0 0.0 0.00 0.00 0.03 91 1005.1
20260831121548 67 172 0.0 0.0 0.00 0.00 0.03 92 1005.2
20260831120045 66 118 0.0 0.0 0.00 0.00 0.02 92 1005.2
20260831114552 66 179 0.0 0.0 0.00 0.00 0.02 92 1005.5
20260831113043 65 179 0.0 0.0 0.00 0.00 0.02 92 1005.6
20260831111551 65 128 0.0 0.0 0.00 0.00 0.02 93 1005.5
20260831110042 63 162 0.0 0.0 0.00 0.00 0.02 92 1005.4
20260831104545 62 161 0.0 0.0 0.00 0.00 0.02 92 1005.7
20260831103040 63 162 0.0 0.0 0.00 0.00 0.02 91 1005.6
20260831101540 65 157 0.0 0.0 0.00 0.00 0.02 92 1005.6
20260831100057 65 153 0.0 0.0 0.00 0.00 0.02 92 1005.8
20260831094538 66 227 0.0 0.0 0.00 0.00 0.02 93 1005.8
20260831093039 65 183 0.0 0.0 0.00 0.00 0.02 94 1005.9
20260831091531 63 188 0.0 0.0 0.00 0.00 0.02 94 1006.1
20260831090029 63 137 0.0 0.0 0.00 0.00 0.02 94 1006.2
20260831084527 63 184 0.0 0.0 0.00 0.00 0.02 94 1006.5
20260831083025 62 184 0.0 0.0 0.00 0.00 0.02 94 1006.4
20260831081523 62 180 0.0 0.0 0.00 0.00 0.02 94 1006.5
20260831080026 61 173 0.0 0.0 0.00 0.00 0.02 94 1006.5
20260831074521 61 215 0.0 0.0 0.00 0.00 0.02 94 1006.6
20260831073033 61 216 0.0 0.0 0.00 0.00 0.02 94 1006.7
20260831071520 61 229 0.0 0.0 0.00 0.00 0.02 94 1006.8
20260831070018 61 229 0.0 0.0 0.00 0.00 0.02 94 1006.8
20260831064523 60 229 0.0 0.0 0.00 0.00 0.02 94 1006.6
20260831063023 60 229 0.0 0.0 0.00 0.00 0.02 94 1006.5
20260831061515 59 229 0.0 0.0 0.00 0.00 0.02 94 1006.7
20260831060015 59 229 0.0 0.0 0.00 0.00 0.02 94 1006.8
20260831054514 59 229 0.0 0.0 0.00 0.00 0.02 94 1006.7
20260831053013 59 229 0.0 0.0 0.00 0.00 0.02 93 1006.8
20260831051511 58 229 0.0 0.0 0.00 0.00 0.02 93 1007.0
20260831050127 58 229 0.0 0.0 0.00 0.00 0.02 93 1007.0
20260831044510 58 229 0.0 0.0 0.00 0.00 0.02 93 1007.1
20260831043011 58 229 0.0 0.0 0.00 0.00 0.01 93 1007.1
20260831041508 58 229 0.0 0.0 0.00 0.00 0.01 93 1007.1
20260831040010 58 229 0.0 0.0 0.00 0.00 0.01 92 1007.0
20260831034507 58 229 0.0 0.0 0.00 0.00 0.01 92 1007.1
20260831033006 59 229 0.0 0.0 0.00 0.00 0.01 92 1007.1
20260831031505 59 229 1.0 0.0 0.00 0.00 0.01 92 1007.2
20260831030004 59 226 1.0 0.0 0.00 0.00 0.01 92 1007.5
20260831024506 59 234 0.0 0.0 0.00 0.00 0.01 92 1007.5
20260831023002 60 235 0.0 0.0 0.00 0.00 0.01 92 1007.4
20260831021502 60 228 0.0 0.0 0.00 0.00 0.01 92 1007.6
20260831020002 60 228 1.0 0.0 0.00 0.00 0.01 92 1007.6
20260831014504 60 229 1.0 0.0 0.00 0.00 0.01 92 1007.6
20260831013101 60 232 1.0 0.0 0.00 0.00 0.01 92 1007.7
20260831011600 60 242 1.0 0.0 0.00 0.00 0.01 92 1007.7
20260831010111 59 244 0.0 0.0 0.00 0.00 0.01 92 1007.6
20260831004606 59 244 0.0 0.0 0.00 0.00 0.01 92 1007.5
20260831003108 58 244 0.0 0.0 0.00 0.00 0.01 92 1007.5
20260831001558 57 244 0.0 0.0 0.00 0.00 0.01 92 1007.6
20260831000057 57 244 0.0 0.0 0.00 0.00 0.01 91 1007.6
20260830234605 57 244 0.0 0.0 0.00 0.00 0.01 90 1007.5
20260830233054 57 244 0.0 0.0 0.00 0.00 0.01 90 1007.5
20260830231601 58 244 0.0 0.0 0.00 0.00 0.01 90 1007.5
20260830230052 58 244 0.0 0.0 0.00 0.00 0.00 89 1007.6
20260830224601 59 244 0.0 0.0 0.00 0.00 0.00 89 1007.5
20260830223048 59 244 0.0 0.0 0.00 0.00 0.00 89 1007.5